Time,TemperatureF,DewpointF,PressureIn,WindDirection,WindDirectionDegrees,WindSpeedMPH,WindSpeedGustMPH,Humidity,HourlyPrecipIn,Conditions,Clouds,dailyrainin,SoftwareType,DateUTC
2013-10-28 00:11:00,53.0,52.0,30.18,North,350,0.0,0.0,95,0.00,,,0.00,weatherlink.com 1.10,2013-10-28 04:11:00,
2013-10-28 00:26:00,53.3,52.0,30.18,North,350,0.0,0.0,95,0.00,,,0.00,weatherlink.com 1.10,2013-10-28 04:26:00,
2013-10-28 00:41:00,53.5,52.0,30.18,North,350,0.0,0.0,95,0.00,,,0.00,weatherlink.com 1.10,2013-10-28 04:41:00,
2013-10-28 00:56:00,53.6,52.0,30.17,North,350,0.0,0.0,95,0.00,,,0.00,weatherlink.com 1.10,2013-10-28 04:56:00,
2013-10-28 01:11:00,53.7,52.0,30.17,North,349,0.0,0.0,95,0.00,,,0.00,weatherlink.com 1.10,2013-10-28 05:11:00,
2013-10-28 01:26:00,54.0,53.0,30.16,North,350,0.0,0.0,95,0.00,,,0.00,weatherlink.com 1.10,2013-10-28 05:26:00,
2013-10-28 01:41:00,54.3,53.0,30.16,NNW,347,0.0,0.0,95,0.01,,,0.01,weatherlink.com 1.10,2013-10-28 05:41:00,
2013-10-28 01:56:00,54.7,53.0,30.15,NNW,347,0.0,0.0,95,0.01,,,0.01,weatherlink.com 1.10,2013-10-28 05:56:00,
2013-10-28 02:11:00,54.8,53.0,30.15,WSW,248,0.0,1.0,95,0.01,,,0.01,weatherlink.com 1.10,2013-10-28 06:11:00,
2013-10-28 02:26:00,54.9,54.0,30.16,WSW,248,0.0,0.0,95,0.01,,,0.01,weatherlink.com 1.10,2013-10-28 06:26:00,
2013-10-28 02:41:00,54.9,54.0,30.16,WSW,248,0.0,0.0,95,0.00,,,0.01,weatherlink.com 1.10,2013-10-28 06:41:00,
2013-10-28 02:56:00,54.9,54.0,30.17,WSW,248,0.0,0.0,95,0.00,,,0.01,weatherlink.com 1.10,2013-10-28 06:56:00,
2013-10-28 03:11:00,55.0,54.0,30.17,WSW,248,0.0,0.0,95,0.00,,,0.01,weatherlink.com 1.10,2013-10-28 07:11:00,
2013-10-28 03:26:00,55.0,54.0,30.17,North,360,0.0,0.0,95,0.00,,,0.01,weatherlink.com 1.10,2013-10-28 07:26:00,
2013-10-28 03:41:00,55.2,54.0,30.17,North,360,0.0,1.0,95,0.00,,,0.01,weatherlink.com 1.10,2013-10-28 07:41:00,
2013-10-28 03:56:00,55.3,54.0,30.17,North,360,0.0,0.0,95,0.00,,,0.01,weatherlink.com 1.10,2013-10-28 07:56:00,
2013-10-28 04:11:00,55.3,54.0,30.17,North,356,0.0,0.0,95,0.00,,,0.01,weatherlink.com 1.10,2013-10-28 08:11:00,
2013-10-28 04:26:00,55.3,54.0,30.17,North,356,0.0,0.0,95,0.00,,,0.01,weatherlink.com 1.10,2013-10-28 08:26:00,
2013-10-28 04:41:00,54.9,54.0,30.17,North,356,0.0,0.0,95,0.00,,,0.01,weatherlink.com 1.10,2013-10-28 08:41:00,
2013-10-28 04:56:00,54.7,53.0,30.17,North,355,0.0,0.0,95,0.00,,,0.01,weatherlink.com 1.10,2013-10-28 08:56:00,
2013-10-28 05:11:00,54.0,53.0,30.18,North,355,0.0,0.0,95,0.00,,,0.01,weatherlink.com 1.10,2013-10-28 09:11:00,
2013-10-28 05:26:00,53.7,52.0,30.18,North,356,0.0,0.0,95,0.00,,,0.01,weatherlink.com 1.10,2013-10-28 09:26:00,
2013-10-28 05:41:00,53.4,52.0,30.18,North,356,0.0,0.0,95,0.00,,,0.01,weatherlink.com 1.10,2013-10-28 09:41:00,
2013-10-28 05:56:00,53.3,52.0,30.19,North,355,0.0,0.0,95,0.00,,,0.01,weatherlink.com 1.10,2013-10-28 09:56:00,
2013-10-28 06:11:00,53.2,52.0,30.19,North,355,0.0,0.0,95,0.00,,,0.01,weatherlink.com 1.10,2013-10-28 10:11:00,
2013-10-28 06:26:00,53.4,52.0,30.20,SW,232,0.0,1.0,95,0.00,,,0.01,weatherlink.com 1.10,2013-10-28 10:26:00,
2013-10-28 06:42:00,53.7,52.0,30.21,SSW,210,0.0,1.0,95,0.00,,,0.01,weatherlink.com 1.10,2013-10-28 10:42:00,
2013-10-28 06:57:00,53.9,53.0,30.21,SSW,210,0.0,0.0,95,0.00,,,0.01,weatherlink.com 1.10,2013-10-28 10:57:00,
2013-10-28 07:12:00,53.9,53.0,30.21,SSW,210,0.0,0.0,95,0.00,,,0.01,weatherlink.com 1.10,2013-10-28 11:12:00,
2013-10-28 07:27:00,53.9,53.0,30.21,SSW,210,0.0,0.0,95,0.00,,,0.01,weatherlink.com 1.10,2013-10-28 11:27:00,
2013-10-28 07:42:00,53.9,53.0,30.22,SSW,210,0.0,0.0,95,0.00,,,0.01,weatherlink.com 1.10,2013-10-28 11:42:00,
2013-10-28 07:57:00,54.0,53.0,30.23,SW,229,0.0,0.0,95,0.00,,,0.01,weatherlink.com 1.10,2013-10-28 11:57:00,
2013-10-28 08:12:00,54.0,53.0,30.23,SW,217,0.0,0.0,95,0.01,,,0.02,weatherlink.com 1.10,2013-10-28 12:12:00,
2013-10-28 08:27:00,54.1,53.0,30.24,SW,217,0.0,0.0,95,0.03,,,0.04,weatherlink.com 1.10,2013-10-28 12:27:00,
2013-10-28 08:42:00,54.3,53.0,30.24,SW,217,0.0,0.0,95,0.06,,,0.07,weatherlink.com 1.10,2013-10-28 12:42:00,
2013-10-28 08:57:00,54.4,53.0,30.25,SW,217,0.0,0.0,96,0.10,,,0.11,weatherlink.com 1.10,2013-10-28 12:57:00,
2013-10-28 09:12:00,54.5,53.0,30.25,SW,217,0.0,0.0,96,0.10,,,0.12,weatherlink.com 1.10,2013-10-28 13:12:00,
2013-10-28 09:27:00,54.7,54.0,30.27,SW,217,0.0,0.0,96,0.10,,,0.14,weatherlink.com 1.10,2013-10-28 13:27:00,
2013-10-28 09:42:00,54.9,54.0,30.27,SW,217,0.0,0.0,96,0.08,,,0.15,weatherlink.com 1.10,2013-10-28 13:42:00,
2013-10-28 09:57:00,55.1,54.0,30.27,SW,217,0.0,0.0,96,0.04,,,0.15,weatherlink.com 1.10,2013-10-28 13:57:00,
2013-10-28 10:12:00,55.3,54.0,30.27,SW,217,0.0,0.0,96,0.03,,,0.15,weatherlink.com 1.10,2013-10-28 14:12:00,
2013-10-28 10:27:00,55.7,55.0,30.27,SW,217,0.0,0.0,96,0.01,,,0.15,weatherlink.com 1.10,2013-10-28 14:27:00,
2013-10-28 10:42:00,56.2,55.0,30.27,SW,217,0.0,0.0,96,0.00,,,0.15,weatherlink.com 1.10,2013-10-28 14:42:00,
2013-10-28 10:57:00,56.6,56.0,30.27,SW,217,0.0,0.0,96,0.00,,,0.15,weatherlink.com 1.10,2013-10-28 14:57:00,
2013-10-28 11:12:00,56.9,56.0,30.27,SW,225,0.0,1.0,96,0.00,,,0.15,weatherlink.com 1.10,2013-10-28 15:12:00,
2013-10-28 11:27:00,57.6,57.0,30.27,SW,225,0.0,0.0,96,0.00,,,0.15,weatherlink.com 1.10,2013-10-28 15:27:00,
2013-10-28 11:42:00,58.6,58.0,30.27,SW,225,0.0,0.0,96,0.00,,,0.15,weatherlink.com 1.10,2013-10-28 15:42:00,
2013-10-28 11:57:00,59.1,58.0,30.28,SW,225,0.0,0.0,96,0.00,,,0.15,weatherlink.com 1.10,2013-10-28 15:57:00,
2013-10-28 12:12:00,59.5,58.0,30.28,SW,225,0.0,0.0,95,0.00,,,0.15,weatherlink.com 1.10,2013-10-28 16:12:00,
2013-10-28 12:27:00,59.7,58.0,30.28,SW,225,0.0,0.0,95,0.00,,,0.15,weatherlink.com 1.10,2013-10-28 16:27:00,
2013-10-28 12:42:00,59.9,59.0,30.27,SW,225,0.0,0.0,95,0.00,,,0.15,weatherlink.com 1.10,2013-10-28 16:42:00,
2013-10-28 12:57:00,61.1,59.0,30.27,SW,225,0.0,1.0,92,0.00,,,0.15,weatherlink.com 1.10,2013-10-28 16:57:00,
2013-10-28 13:12:00,61.3,59.0,30.27,SW,228,0.0,0.0,92,0.00,,,0.15,weatherlink.com 1.10,2013-10-28 17:12:00,
2013-10-28 13:27:00,61.7,58.0,30.27,SW,236,0.0,1.0,87,0.00,,,0.15,weatherlink.com 1.10,2013-10-28 17:27:00,
2013-10-28 13:43:00,62.9,59.0,30.26,SW,231,0.0,1.0,86,0.00,,,0.15,weatherlink.com 1.10,2013-10-28 17:43:00,
2013-10-28 13:58:00,63.5,57.0,30.26,SSW,210,2.0,4.0,80,0.00,,,0.15,weatherlink.com 1.10,2013-10-28 17:58:00,
2013-10-28 14:13:00,64.9,58.0,30.25,SSW,205,2.0,4.0,78,0.00,,,0.15,weatherlink.com 1.10,2013-10-28 18:13:00,
2013-10-28 14:28:00,64.3,56.0,30.25,WSW,246,2.0,5.0,74,0.00,,,0.15,weatherlink.com 1.10,2013-10-28 18:28:00,
2013-10-28 14:43:00,64.2,57.0,30.24,SW,233,0.0,4.0,77,0.00,,,0.15,weatherlink.com 1.10,2013-10-28 18:43:00,
2013-10-28 14:58:00,64.0,57.0,30.24,SE,140,0.0,1.0,77,0.00,,,0.15,weatherlink.com 1.10,2013-10-28 18:58:00,
2013-10-28 15:13:00,64.1,57.0,30.24,WSW,245,2.0,2.0,78,0.00,,,0.15,weatherlink.com 1.10,2013-10-28 19:13:00,
2013-10-28 15:28:00,64.6,57.0,30.24,ENE,58,0.0,3.0,75,0.00,,,0.15,weatherlink.com 1.10,2013-10-28 19:28:00,
2013-10-28 15:43:00,64.3,56.0,30.23,SSW,195,0.0,1.0,74,0.00,,,0.15,weatherlink.com 1.10,2013-10-28 19:43:00,
2013-10-28 15:58:00,63.8,56.0,30.23,SW,233,3.0,4.0,75,0.00,,,0.15,weatherlink.com 1.10,2013-10-28 19:58:00,
2013-10-28 16:13:00,63.6,56.0,30.23,WSW,240,2.0,3.0,76,0.00,,,0.15,weatherlink.com 1.10,2013-10-28 20:13:00,
2013-10-28 16:28:00,65.4,58.0,30.22,West,264,1.0,1.0,77,0.00,,,0.15,weatherlink.com 1.10,2013-10-28 20:28:00,
2013-10-28 16:43:00,66.7,57.0,30.23,SSW,195,0.0,3.0,72,0.00,,,0.15,weatherlink.com 1.10,2013-10-28 20:43:00,
2013-10-28 16:58:00,67.6,57.0,30.23,NW,304,0.0,1.0,69,0.00,,,0.15,weatherlink.com 1.10,2013-10-28 20:58:00,
2013-10-28 17:13:00,65.2,57.0,30.23,WSW,240,0.0,1.0,75,0.00,,,0.15,weatherlink.com 1.10,2013-10-28 21:13:00,
2013-10-28 17:28:00,63.9,58.0,30.23,SW,221,0.0,0.0,81,0.00,,,0.15,weatherlink.com 1.10,2013-10-28 21:28:00,
2013-10-28 17:43:00,63.0,58.0,30.23,SW,221,0.0,0.0,83,0.00,,,0.15,weatherlink.com 1.10,2013-10-28 21:43:00,
2013-10-28 17:58:00,62.6,58.0,30.23,SW,221,0.0,0.0,84,0.00,,,0.15,weatherlink.com 1.10,2013-10-28 21:58:00,
2013-10-28 18:13:00,62.4,58.0,30.24,SW,221,0.0,0.0,85,0.00,,,0.15,weatherlink.com 1.10,2013-10-28 22:13:00,
2013-10-28 18:28:00,61.8,58.0,30.24,SW,221,0.0,0.0,87,0.00,,,0.15,weatherlink.com 1.10,2013-10-28 22:28:00,
2013-10-28 18:43:00,61.4,58.0,30.25,SW,221,0.0,0.0,88,0.00,,,0.15,weatherlink.com 1.10,2013-10-28 22:43:00,
2013-10-28 18:58:00,60.6,57.0,30.25,SW,221,0.0,0.0,89,0.00,,,0.15,weatherlink.com 1.10,2013-10-28 22:58:00,
2013-10-28 19:13:00,60.1,57.0,30.25,SW,221,0.0,0.0,90,0.00,,,0.15,weatherlink.com 1.10,2013-10-28 23:13:00,
2013-10-28 19:28:00,59.8,57.0,30.26,SW,221,0.0,0.0,91,0.00,,,0.15,weatherlink.com 1.10,2013-10-28 23:28:00,
2013-10-28 19:43:00,59.9,58.0,30.26,SW,221,0.0,0.0,92,0.00,,,0.15,weatherlink.com 1.10,2013-10-28 23:43:00,
2013-10-28 19:58:00,59.6,57.0,30.26,SW,221,0.0,0.0,92,0.00,,,0.15,weatherlink.com 1.10,2013-10-28 23:58:00,
2013-10-28 20:13:00,59.4,57.0,30.27,SW,221,0.0,0.0,92,0.00,,,0.15,weatherlink.com 1.10,2013-10-29 00:13:00,
2013-10-28 20:28:00,59.0,57.0,30.27,SW,221,0.0,0.0,93,0.00,,,0.15,weatherlink.com 1.10,2013-10-29 00:28:00,
2013-10-28 20:43:00,58.5,57.0,30.27,SW,221,0.0,0.0,93,0.00,,,0.15,weatherlink.com 1.10,2013-10-29 00:43:00,
2013-10-28 20:58:00,58.4,57.0,30.27,SW,221,0.0,0.0,94,0.00,,,0.15,weatherlink.com 1.10,2013-10-29 00:58:00,
2013-10-28 21:13:00,58.3,57.0,30.28,SW,221,0.0,0.0,94,0.00,,,0.15,weatherlink.com 1.10,2013-10-29 01:13:00,
2013-10-28 21:28:00,58.2,57.0,30.28,SW,221,0.0,0.0,94,0.00,,,0.15,weatherlink.com 1.10,2013-10-29 01:28:00,
2013-10-28 21:43:00,57.8,56.0,30.29,SW,221,0.0,0.0,94,0.00,,,0.15,weatherlink.com 1.10,2013-10-29 01:43:00,
2013-10-28 21:58:00,57.6,56.0,30.29,SW,221,0.0,0.0,94,0.00,,,0.15,weatherlink.com 1.10,2013-10-29 01:58:00,
2013-10-28 22:13:00,57.7,56.0,30.29,SW,221,0.0,0.0,95,0.00,,,0.15,weatherlink.com 1.10,2013-10-29 02:13:00,
2013-10-28 22:28:00,57.6,56.0,30.29,SW,221,0.0,0.0,95,0.00,,,0.15,weatherlink.com 1.10,2013-10-29 02:28:00,
2013-10-28 22:43:00,57.4,56.0,30.29,SW,221,0.0,0.0,95,0.00,,,0.15,weatherlink.com 1.10,2013-10-29 02:43:00,
2013-10-28 22:58:00,57.0,56.0,30.29,SW,221,0.0,0.0,95,0.00,,,0.15,weatherlink.com 1.10,2013-10-29 02:58:00,
2013-10-28 23:13:00,56.4,55.0,30.29,SW,221,0.0,0.0,95,0.00,,,0.15,weatherlink.com 1.10,2013-10-29 03:13:00,
2013-10-28 23:28:00,55.9,55.0,30.29,SW,221,0.0,0.0,95,0.00,,,0.15,weatherlink.com 1.10,2013-10-29 03:28:00,
2013-10-28 23:43:00,56.0,55.0,30.29,SW,221,0.0,0.0,95,0.00,,,0.15,weatherlink.com 1.10,2013-10-29 03:43:00,
2013-10-28 23:58:00,56.1,55.0,30.28,SW,221,0.0,0.0,95,0.00,,,0.00,weatherlink.com 1.10,2013-10-29 03:58:00,